Vertical_Velocity
2 -1 0 -1 -0 -4 1 -1 0 -0 1 -1 -1 0 -1 -1 -0 -0 -0 -0 -0 -1 -0 -1 -2 -1 -1 -1 -1 -1 -2 -1 -1
3 -0 1 -2 -0 -3 -1 1 -1 0 0 -1 -1 -1 -2 -2 -1 -1 -1 1 0 -1 -2 -2 -2 -2 -1 -1 -2 -1 -2 -1 0
3 0 2 -2 -0 -1 -0 -1 0 0 0 0 -1 -1 0 0 -1 -1 -1 1 -0 -1 -1 -1 -1 -1 -1 -1 -1 -1 -2 -2 -2
4 1 1 -2 1 -0 0 -1 0 -1 1 -0 0 1 -0 -0 -0 -2 -1 0 -1 -1 -1 0 -1 -1 -1 -1 -1 -1 -1 -1 -1
2 5 -0 0 -1 0 0 -1 -2 -0 -1 1 -1 -2 -2 1 -1 0 -2 -2 -1 -0 -1 -1 -2 -2 -0 -0 -1 -1 -2 -2 -3
0 8 1 -1 -0 -0 0 -1 -1 -1 -1 -1 2 -0 -2 -0 -2 -1 0 1 -0 0 -1 -1 0 -1 -2 -1 -1 -0 -1 -2 -1
-2 7 2 1 -1 2 1 -0 -1 -1 -1 -1 -1 -1 0 -1 1 -3 -1 -2 0 0 2 0 -2 -1 -2 -1 -1 -1 -1 -1 -1
0 -0 -1 -1 -2 0 -0 0 -0 -1 -1 -0 -4 -0 -1 2 -1 1 -1 1 1 0 1 -1 0 0 -1 -1 -1 0 -0 -1 -1
-2 -3 1 1 1 0 2 0 -1 -1 -2 1 -3 -1 -2 1 2 0 1 -0 -0 0 -0 0 -1 -0 0 -0 -1 -1 -2 -2 -1
-1 -5 -2 1 1 1 -0 0 -0 0 -1 -2 -1 0 -2 1 -1 1 1 -0 -1 -0 0 -1 0 0 -0 -0 -1 -1 -1 -2 -1
-3 -2 -1 -2 2 3 1 2 0 -0 -2 -2 3 0 -2 1 -1 -1 -2 1 -0 -1 0 0 -0 -1 0 -0 -1 -1 -0 0 -0
-1 1 -3 0 2 2 -1 2 -2 0 -2 -2 2 1 -2 -0 1 -2 -2 -0 -1 1 -1 -1 0 0 -1 0 -1 -1 -0 1 0
3 1 0 -2 2 2 -1 -3 -3 -2 -0 -3 -0 1 -1 0 -1 -0 1 -1 -0 -2 -1 1 -0 -1 1 -1 -1 -1 -1 -1 -1
4 2 3 -3 2 -1 -1 -1 -1 2 -0 -3 1 -0 1 4 -0 -0 -2 0 3 1 -2 -1 -0 -1 -2 -1 -2 -1 -1 -1 -2
3 -1 2 2 1 -1 -3 -1 -0 1 1 1 2 -0 1 0 -0 -2 -1 -0 0 -5 1 -0 -1 -3 -1 2 2 1 2 4 4
5 1 2 2 1 3 5 -2 -1 -1 -2 -0 2 0 1 -3 0 1 -0 -1 -2 1 1 1 1 2 -2 -3 -1 -0 -0 1 4
9 5 -1 -1 -2 3 0 -2 -3 -1 1 2 3 -2 -1 -1 0 -3 -1 -1 -2 1 -1 -1 -4 -6 -1 2 0 0 0 -0 0
7 4 -1 -1 2 -1 0 2 -3 3 1 0 2 -1 -1 1 2 -2 -3 -1 -1 1 -1 -2 1 -0 -3 -1 2 1 -5 -3 -1
1 0 1 -1 5 2 2 -1 1 -0 -0 -2 -0 -2 -0 -2 2 -0 -4 -1 0 1 -0 1 1 0 2 -3 0 1 2 -1 -2
1 1 -0 4 0 2 1 0 -0 -2 1 -2 -0 -3 0 -1 2 3 2 -3 -2 -1 -1 -2 -3 -1 -0 -3 -1 -4 -4 3 -0
Height
3167 3168 3170 3171 3173 3173 3175 3177 3178 3180 3181 3182 3183 3184 3185 3185 3187 3188 3189 3189 3190 3189 3189 3189 3188 3188 3188 3187 3186 3185 3184 3183 3182
3166 3167 3169 3171 3173 3174 3175 3177 3179 3181 3182 3183 3184 3185 3186 3187 3188 3189 3190 3191 3191 3191 3190 3190 3190 3190 3189 3189 3187 3186 3186 3184 3183
3165 3167 3168 3170 3172 3174 3176 3178 3180 3181 3182 3184 3185 3186 3187 3189 3190 3191 3191 3191 3192 3192 3192 3192 3191 3191 3191 3190 3189 3188 3187 3186 3184
3164 3165 3167 3169 3171 3174 3177 3178 3180 3182 3183 3184 3186 3187 3189 3190 3191 3192 3192 3193 3193 3193 3193 3193 3193 3192 3192 3191 3190 3189 3188 3187 3185
3162 3164 3166 3168 3170 3173 3176 3178 3180 3182 3183 3185 3186 3188 3189 3191 3192 3193 3194 3194 3195 3195 3194 3195 3195 3194 3193 3192 3191 3190 3189 3187 3185
3160 3163 3165 3167 3169 3172 3175 3178 3180 3182 3184 3185 3187 3189 3190 3192 3193 3194 3194 3195 3196 3196 3196 3196 3196 3196 3195 3194 3193 3192 3190 3188 3186
3158 3161 3163 3166 3169 3172 3174 3177 3179 3182 3184 3185 3188 3189 3191 3193 3194 3195 3195 3196 3197 3197 3198 3198 3198 3197 3196 3195 3194 3193 3191 3189 3188
3155 3158 3161 3164 3167 3170 3173 3176 3179 3181 3184 3186 3189 3190 3191 3193 3194 3196 3196 3197 3198 3199 3199 3199 3199 3198 3197 3196 3195 3194 3192 3190 3189
3151 3155 3160 3163 3166 3169 3172 3175 3178 3180 3183 3186 3188 3190 3191 3193 3195 3196 3198 3198 3199 3200 3200 3200 3200 3199 3198 3197 3196 3194 3193 3191 3190
3148 3153 3158 3161 3165 3168 3171 3174 3177 3179 3183 3185 3188 3190 3191 3194 3195 3197 3198 3199 3200 3201 3201 3200 3200 3199 3198 3197 3197 3195 3194 3192 3190
3146 3150 3155 3160 3163 3167 3170 3174 3177 3179 3182 3185 3188 3190 3191 3194 3195 3197 3198 3199 3200 3200 3200 3199 3199 3199 3198 3197 3196 3195 3193 3191 3190
3143 3148 3152 3157 3161 3165 3168 3172 3175 3178 3181 3185 3188 3190 3192 3194 3195 3196 3197 3198 3199 3199 3199 3198 3198 3197 3196 3195 3194 3193 3192 3190 3188
3139 3144 3149 3154 3159 3163 3167 3170 3174 3177 3181 3184 3187 3190 3192 3193 3194 3195 3197 3197 3198 3198 3197 3197 3196 3196 3195 3194 3192 3191 3190 3188 3186
3136 3141 3147 3151 3157 3161 3165 3169 3173 3177 3179 3183 3186 3189 3190 3192 3193 3194 3195 3196 3196 3196 3196 3195 3195 3194 3194 3192 3190 3189 3187 3186 3185
3132 3138 3144 3149 3154 3157 3162 3167 3171 3175 3178 3182 3184 3187 3188 3190 3191 3192 3193 3193 3193 3193 3194 3193 3192 3192 3190 3188 3187 3186 3185 3183 3182
3130 3135 3140 3145 3150 3156 3161 3165 3169 3173 3176 3180 3182 3184 3186 3188 3189 3190 3190 3191 3191 3191 3190 3189 3189 3188 3186 3184 3183 3182 3182 3181 3179
3126 3131 3136 3141 3147 3152 3158 3162 3166 3169 3174 3177 3179 3182 3185 3186 3187 3188 3188 3187 3187 3186 3186 3185 3183 3182 3182 3180 3179 3178 3178 3177 3176
3122 3127 3131 3138 3144 3150 3155 3159 3164 3168 3171 3174 3177 3179 3181 3184 3184 3184 3184 3185 3184 3184 3182 3181 3180 3178 3175 3176 3175 3175 3173 3172 3171
3117 3122 3128 3134 3141 3146 3151 3156 3160 3164 3167 3170 3173 3175 3178 3178 3180 3180 3180 3180 3181 3180 3179 3177 3175 3173 3171 3170 3169 3169 3168 3166 3165
3112 3118 3125 3133 3138 3143 3148 3153 3156 3160 3164 3167 3169 3170 3173 3174 3174 3175 3176 3176 3175 3174 3173 3171 3170 3167 3166 3165 3164 3164 3162 3161 3160